| time (UTC) | temp C | wind direction | speed KPH | gust KPH | rain 1hr cm | rain 24hr cm | rain mn cm | humidity % | barometer mb |
| 20260904094543 | 26 | 179 | 0.0 | 6.4 | 0.00 | 3.30 | 0.00 | 86 | 1010.4 |
| 20260904093042 | 26 | 179 | 1.6 | 4.8 | 0.00 | 3.30 | 0.00 | 86 | 1010.5 |
| 20260904091538 | 26 | 179 | 0.0 | 3.2 | 0.00 | 3.30 | 0.00 | 86 | 1010.5 |
| 20260904090035 | 26 | 179 | 0.0 | 3.2 | 0.00 | 3.30 | 0.00 | 86 | 1010.7 |
| 20260904084536 | 26 | 179 | 0.0 | 4.8 | 0.00 | 3.30 | 0.00 | 85 | 1010.7 |
| 20260904083032 | 26 | 179 | 0.0 | 3.2 | 0.00 | 3.30 | 0.00 | 85 | 1010.6 |
| 20260904081531 | 26 | 179 | 0.0 | 8.0 | 0.00 | 3.30 | 0.00 | 85 | 1010.7 |
| 20260904080030 | 26 | 178 | 1.6 | 4.8 | 0.00 | 3.30 | 0.00 | 84 | 1010.8 |
| 20260904074527 | 27 | 178 | 0.0 | 4.8 | 0.00 | 3.30 | 0.00 | 84 | 1010.8 |
| 20260904073026 | 27 | 178 | 1.6 | 6.4 | 0.00 | 3.30 | 0.00 | 84 | 1010.9 |
| 20260904071523 | 27 | 178 | 1.6 | 4.8 | 0.00 | 3.30 | 0.00 | 84 | 1011.0 |
| 20260904070019 | 27 | 178 | 1.6 | 4.8 | 0.00 | 3.30 | 0.00 | 84 | 1011.3 |
| 20260904064523 | 27 | 178 | 0.0 | 1.6 | 0.00 | 3.30 | 3.30 | 84 | 1011.5 |
| 20260904063026 | 27 | 178 | 0.0 | 3.2 | 0.00 | 3.30 | 3.30 | 83 | 1011.7 |
| 20260904061531 | 27 | 178 | 0.0 | 3.2 | 0.00 | 3.30 | 3.30 | 82 | 1011.8 |
| 20260904060022 | 27 | 178 | 0.0 | 3.2 | 0.00 | 3.30 | 3.30 | 82 | 1011.9 |
| 20260904054521 | 27 | 178 | 0.0 | 3.2 | 0.00 | 3.30 | 3.30 | 82 | 1012.1 |
| 20260904053016 | 27 | 178 | 0.0 | 1.6 | 0.00 | 3.30 | 3.30 | 81 | 1012.1 |
| 20260904051516 | 28 | 178 | 1.6 | 3.2 | 0.00 | 3.30 | 3.30 | 80 | 1012.1 |
| 20260904050023 | 28 | 178 | 0.0 | 3.2 | 0.00 | 3.30 | 3.30 | 78 | 1012.3 |
| 20260904044514 | 28 | 178 | 0.0 | 3.2 | 0.00 | 3.30 | 3.30 | 76 | 1012.2 |
| 20260904043015 | 28 | 178 | 0.0 | 1.6 | 0.00 | 3.30 | 3.30 | 75 | 1011.9 |
| 20260904041518 | 28 | 178 | 0.0 | 4.8 | 0.00 | 3.30 | 3.30 | 76 | 1011.8 |
| 20260904040028 | 28 | 178 | 0.0 | 3.2 | 0.00 | 3.30 | 3.30 | 77 | 1011.8 |
| 20260904034514 | 28 | 178 | 0.0 | 1.6 | 0.00 | 3.33 | 3.30 | 77 | 1011.6 |
| 20260904033012 | 28 | 178 | 0.0 | 1.6 | 0.00 | 3.33 | 3.30 | 77 | 1011.4 |
| 20260904031517 | 28 | 178 | 0.0 | 3.2 | 0.00 | 3.33 | 3.30 | 76 | 1011.2 |
| 20260904030014 | 28 | 178 | 0.0 | 3.2 | 0.00 | 3.33 | 3.30 | 76 | 1011.0 |
| 20260904024512 | 28 | 178 | 0.0 | 3.2 | 0.00 | 3.33 | 3.30 | 76 | 1010.8 |
| 20260904023017 | 28 | 178 | 0.0 | 3.2 | 0.00 | 3.33 | 3.30 | 74 | 1010.7 |
| 20260904021525 | 29 | 178 | 0.0 | 1.6 | 0.00 | 3.33 | 3.30 | 74 | 1010.7 |
| 20260904020009 | 30 | 178 | 0.0 | 3.2 | 0.00 | 3.33 | 3.30 | 73 | 1010.6 |
| 20260904014509 | 30 | 178 | 1.6 | 3.2 | 0.00 | 3.35 | 3.30 | 71 | 1010.6 |
| 20260904013008 | 31 | 178 | 0.0 | 3.2 | 0.00 | 3.35 | 3.30 | 68 | 1010.7 |
| 20260904011508 | 31 | 178 | 1.6 | 6.4 | 0.00 | 3.35 | 3.30 | 67 | 1010.8 |
| 20260904010007 | 31 | 178 | 1.6 | 8.0 | 0.00 | 3.35 | 3.30 | 67 | 1010.9 |
| 20260904004507 | 31 | 177 | 4.8 | 12.9 | 0.00 | 3.35 | 3.30 | 65 | 1010.9 |
| 20260904003014 | 32 | 171 | 6.4 | 9.7 | 0.00 | 3.35 | 3.30 | 64 | 1010.9 |
| 20260904001504 | 32 | 171 | 6.4 | 11.3 | 0.00 | 3.35 | 3.30 | 63 | 1010.6 |
| 20260904000005 | 33 | 161 | 8.0 | 14.5 | 0.00 | 3.35 | 3.30 | 60 | 1010.2 |
| 20260903234505 | 33 | 159 | 4.8 | 14.5 | 0.00 | 3.35 | 3.30 | 59 | 1010.1 |
| 20260903233004 | 33 | 173 | 6.4 | 11.3 | 0.00 | 3.35 | 3.30 | 58 | 1009.9 |
| 20260903231501 | 33 | 221 | 3.2 | 14.5 | 0.00 | 3.35 | 3.30 | 58 | 1009.9 |
| 20260903230059 | 32 | 189 | 8.0 | 16.1 | 0.00 | 3.35 | 3.30 | 60 | 1009.9 |
| 20260903224600 | 33 | 200 | 8.0 | 19.3 | 0.00 | 3.84 | 3.30 | 59 | 1010.0 |
| 20260903223056 | 32 | 173 | 8.0 | 16.1 | 0.00 | 3.84 | 3.30 | 61 | 1010.0 |
| 20260903221553 | 32 | 184 | 4.8 | 12.9 | 0.00 | 3.84 | 3.30 | 64 | 1010.0 |
| 20260903220049 | 31 | 188 | 4.8 | 12.9 | 0.00 | 3.84 | 3.30 | 66 | 1010.2 |
| 20260903214546 | 30 | 244 | 3.2 | 6.4 | 0.00 | 4.34 | 3.30 | 69 | 1010.4 |
| 20260903213051 | 30 | 244 | 4.8 | 12.9 | 0.00 | 4.34 | 3.30 | 70 | 1010.7 |
| 20260903211541 | 30 | 188 | 9.7 | 20.9 | 0.00 | 4.34 | 3.30 | 70 | 1011.1 |
| 20260903210041 | 30 | 163 | 12.9 | 30.6 | 0.00 | 4.34 | 3.30 | 68 | 1011.7 |
| 20260903204541 | 31 | 176 | 9.7 | 16.1 | 0.00 | 4.65 | 3.30 | 68 | 1011.4 |
| 20260903203034 | 30 | 234 | 3.2 | 11.3 | 0.03 | 4.65 | 3.30 | 70 | 1011.7 |
| 20260903201531 | 29 | 228 | 3.2 | 8.0 | 0.03 | 4.65 | 3.30 | 76 | 1011.9 |
| 20260903200027 | 28 | 240 | 0.0 | 4.8 | 0.03 | 4.65 | 3.30 | 78 | 1011.9 |
| 20260903194523 | 27 | 240 | 0.0 | 4.8 | 0.03 | 4.65 | 3.30 | 77 | 1012.3 |
| 20260903193021 | 27 | 240 | 1.6 | 6.4 | 0.00 | 4.62 | 3.28 | 82 | 1012.4 |
| 20260903191530 | 26 | 240 | 3.2 | 8.0 | 0.10 | 4.62 | 3.28 | 88 | 1012.8 |
| 20260903190018 | 25 | 230 | 4.8 | 14.5 | 0.10 | 4.62 | 3.28 | 90 | 1013.0 |
| 20260903184517 | 25 | 228 | 9.7 | 16.1 | 0.10 | 4.62 | 3.28 | 90 | 1013.5 |
| 20260903183025 | 25 | 217 | 8.0 | 22.5 | 0.05 | 4.57 | 3.23 | 90 | 1014.4 |
| 20260903181515 | 25 | 186 | 17.7 | 38.6 | 0.00 | 4.52 | 3.17 | 89 | 1014.6 |
| 20260903180023 | 26 | 328 | 0.0 | 6.4 | 0.00 | 4.52 | 3.17 | 92 | 1013.5 |
| 20260903174510 | 26 | 328 | 1.6 | 6.4 | 0.00 | 4.52 | 3.17 | 93 | 1013.5 |
| 20260903173009 | 26 | 331 | 1.6 | 9.7 | 0.00 | 4.52 | 3.17 | 94 | 1013.0 |
| 20260903171505 | 26 | 350 | 0.0 | 4.8 | 0.00 | 4.52 | 3.17 | 94 | 1013.2 |
| 20260903170004 | 26 | 350 | 1.6 | 9.7 | 0.00 | 4.52 | 3.17 | 94 | 1013.0 |
| 20260903164502 | 25 | 350 | 1.6 | 6.4 | 0.00 | 4.52 | 3.17 | 94 | 1012.6 |
| 20260903163003 | 25 | 350 | 1.6 | 9.7 | 0.00 | 4.52 | 3.17 | 94 | 1012.7 |
| 20260903161502 | 25 | 349 | 1.6 | 6.4 | 0.00 | 4.52 | 3.17 | 94 | 1013.0 |
| 20260903160105 | 25 | 349 | 1.6 | 8.0 | 0.00 | 4.52 | 3.17 | 94 | 1013.1 |
| 20260903154600 | 25 | 349 | 1.6 | 4.8 | 0.00 | 4.52 | 3.17 | 94 | 1013.1 |
| 20260903153059 | 25 | 349 | 0.0 | 4.8 | 0.00 | 4.52 | 3.17 | 94 | 1013.1 |
| 20260903151556 | 25 | 349 | 1.6 | 3.2 | 0.00 | 4.52 | 3.17 | 94 | 1013.1 |
| 20260903150056 | 24 | 349 | 0.0 | 8.0 | 0.00 | 4.52 | 3.17 | 94 | 1012.9 |
| 20260903144552 | 24 | 349 | 3.2 | 9.7 | 0.00 | 4.52 | 3.17 | 93 | 1012.3 |
| 20260903143052 | 24 | 344 | 3.2 | 8.0 | 0.00 | 4.52 | 3.17 | 93 | 1012.2 |
| 20260903141550 | 24 | 340 | 1.6 | 8.0 | 0.00 | 4.52 | 3.17 | 93 | 1012.2 |
| 20260903140049 | 23 | 340 | 3.2 | 6.4 | 0.30 | 4.52 | 3.17 | 94 | 1011.9 |
| 20260903134610 | 23 | 341 | 3.2 | 6.4 | 0.33 | 4.52 | 3.17 | 93 | 1011.9 |
| 20260903133052 | 23 | 340 | 3.2 | 12.9 | 0.33 | 4.52 | 3.17 | 93 | 1011.7 |
| 20260903131548 | 23 | 329 | 1.6 | 12.9 | 0.33 | 4.52 | 3.17 | 93 | 1011.6 |
| 20260903130146 | 23 | 355 | 1.6 | 8.0 | 0.10 | 4.27 | 2.90 | 92 | 1012.1 |
| 20260903124553 | 23 | 344 | 3.2 | 8.0 | 0.05 | 4.19 | 2.84 | 92 | 1011.6 |
| 20260903123042 | 24 | 360 | 3.2 | 9.7 | 0.15 | 4.19 | 2.84 | 92 | 1011.7 |
| 20260903121549 | 25 | 85 | 9.7 | 20.9 | 0.23 | 4.19 | 2.84 | 92 | 1011.8 |
| 20260903120047 | 25 | 304 | 3.2 | 16.1 | 0.43 | 4.17 | 2.82 | 92 | 1011.5 |
| 20260903114545 | 25 | 304 | 3.2 | 9.7 | 2.59 | 4.14 | 2.79 | 91 | 1011.8 |
| 20260903113035 | 25 | 298 | 4.8 | 12.9 | 2.69 | 4.04 | 2.69 | 91 | 1011.7 |
| 20260903111534 | 25 | 140 | 1.6 | 8.0 | 2.59 | 3.94 | 2.59 | 90 | 1011.9 |
| 20260903110031 | 25 | 141 | 1.6 | 12.9 | 2.36 | 3.71 | 2.36 | 90 | 1012.2 |
| 20260903104528 | 25 | 167 | 9.7 | 16.1 | 0.18 | 1.52 | 0.18 | 89 | 1012.0 |
| 20260903103027 | 25 | 306 | 1.6 | 6.4 | 0.00 | 1.35 | 0.00 | 88 | 1011.1 |
| 20260903101525 | 25 | 305 | 1.6 | 8.0 | 0.00 | 1.35 | 0.00 | 88 | 1011.3 |
| 20260903100026 | 25 | 302 | 3.2 | 8.0 | 0.00 | 1.35 | 0.00 | 88 | 1011.0 |